Location: Bretagne
(43.8474°N, 0.4650°W)
Time: 10:00:59
(UTC+00:00)

BREEZE-M DEB (TANK) - Pass Details

Date: 15 January 2026
Orbit: 304 x 12634 km, 49.7° (Epoch: 11 February)

Event Time Altitude Azimuth Distance (km) Brightness Sun altitude
Rises 18:28:03 0° 249° (WSW) 2,038 7.4 -17.3°
Reaches altitude 10° 18:29:28 10° 252° (WSW) 1,329 6.1 -17.5°
Maximum altitude 18:31:57 72° 338° (NNW) 529 2.7 -18.0°
Enters shadow 18:33:28 36° 54° (NE) 1,009 3.6 -18.3°
